EW7239 Weather Reports


time (UTC)temp
F
wind
direction
speed
knots
gust
knots
rain 1hr
in
rain 24hr
in
rain mn
in
humidity
%
barometer
mb
20260506044338 59 221 3.5 7.0 0.00 0.15 0.15 68 1016.8
20260506043839 59 222 3.5 7.0 0.00 0.15 0.15 68 1016.6
20260506043339 59 222 3.5 6.1 0.00 0.15 0.15 67 1016.6
20260506042839 59 222 3.5 6.1 0.00 0.15 0.15 67 1016.5
20260506042340 59 222 3.5 7.0 0.00 0.15 0.15 66 1016.4
20260506041840 59 222 3.5 7.8 0.00 0.15 0.15 65 1016.3
20260506041340 60 222 3.5 7.8 0.00 0.15 0.15 64 1016.4
20260506041110 60 223 3.5 6.1 0.00 0.15 0.15 63 1016.2
20260506040340 60 223 4.3 7.0 0.00 0.15 0.15 63 1016.2
20260506040109 60 223 3.5 7.0 0.00 0.15 0.15 62 1016.2
20260506035340 60 224 2.6 7.0 0.00 0.15 0.15 61 1016.1
20260506034836 60 228 3.5 5.2 0.00 0.15 0.15 60 1016.0
20260506034332 60 228 3.5 5.2 0.00 0.15 0.15 60 1015.9
20260506034101 60 228 3.5 5.2 0.00 0.15 0.15 60 1015.7
20260506033331 61 229 2.6 5.2 0.00 0.15 0.15 59 1015.7
20260506032829 61 229 3.5 6.1 0.00 0.15 0.15 59 1015.6
20260506032328 61 229 3.5 7.0 0.00 0.15 0.15 58 1015.5
20260506031826 61 229 4.3 7.0 0.00 0.15 0.15 58 1015.4
20260506031325 61 230 4.3 7.0 0.00 0.15 0.15 57 1015.3
20260506030819 62 232 3.5 7.0 0.00 0.15 0.15 57 1015.3
20260506030319 62 233 3.5 7.0 0.00 0.15 0.15 57 1015.3
20260506025816 62 234 4.3 7.8 0.00 0.15 0.15 57 1015.2
20260506025316 62 230 4.3 7.8 0.00 0.15 0.15 56 1015.2
20260506024812 62 234 3.5 7.0 0.00 0.15 0.15 56 1015.0
20260506024304 62 240 3.5 7.0 0.00 0.15 0.15 56 1014.9
20260506023805 63 246 4.3 7.0 0.00 0.15 0.15 55 1014.9
20260506023305 63 243 4.3 8.7 0.00 0.15 0.15 55 1014.8
20260506022300 63 219 4.3 9.6 0.00 0.15 0.15 53 1014.6
20260506021801 64 220 5.2 9.6 0.00 0.15 0.15 52 1014.5
20260506021257 64 226 4.3 8.7 0.00 0.15 0.15 52 1014.5
20260506020757 64 244 4.3 9.6 0.00 0.15 0.15 52 1014.4
20260506020257 64 220 5.2 9.6 0.00 0.15 0.15 52 1014.5
20260506015754 64 226 6.1 11.3 0.00 0.15 0.15 52 1014.4
20260506015252 64 222 6.1 11.3 0.00 0.15 0.15 51 1014.3
20260506014752 65 223 6.1 10.4 0.00 0.15 0.15 50 1014.3
20260506014250 65 223 5.2 10.4 0.00 0.15 0.15 48 1014.2
20260506013750 66 219 5.2 9.6 0.00 0.15 0.15 49 1014.1
20260506013252 66 223 6.1 9.6 0.00 0.15 0.15 48 1014.1
20260506013022 66 200 5.2 9.6 0.00 0.15 0.15 48 1014.0
20260506012250 66 219 5.2 11.3 0.00 0.15 0.15 48 1014.0
20260506011751 67 221 5.2 13.0 0.00 0.15 0.15 48 1014.0
20260506011249 67 240 5.2 10.4 0.00 0.15 0.15 49 1014.0
20260506010749 66 244 6.1 10.4 0.00 0.15 0.15 49 1014.0
20260506010248 66 223 6.1 10.4 0.00 0.15 0.15 48 1014.0
20260506010021 66 221 6.1 9.6 0.00 0.15 0.15 48 1014.0
20260506005249 67 223 5.2 11.3 0.00 0.15 0.15 47 1014.0
20260506004749 67 225 6.1 11.3 0.00 0.15 0.15 47 1014.0
20260506004247 67 263 5.2 11.3 0.00 0.15 0.15 47 1014.0
20260506003747 67 256 5.2 13.0 0.00 0.15 0.15 48 1013.9
20260506003245 67 250 6.1 13.0 0.00 0.15 0.15 47 1014.0
20260506002237 67 257 7.0 14.8 0.00 0.15 0.15 47 1013.9
20260506001737 67 231 7.0 14.8 0.00 0.15 0.15 47 1013.9
20260506001508 67 211 7.0 12.2 0.00 0.15 0.15 47 1013.8
20260506001005 68 230 6.1 12.2 0.00 0.15 0.15 46 1013.8
20260506000232 68 229 6.1 11.3 0.00 0.15 0.15 48 1013.8
20260505235733 67 240 7.0 12.2 0.00 0.15 0.15 48 1013.9
20260505235229 67 228 6.1 12.2 0.00 0.15 0.15 48 1013.8
20260505234959 67 232 7.0 13.9 0.00 0.15 0.15 48 1013.8
20260505234229 67 236 7.8 13.9 0.00 0.15 0.15 49 1013.9
20260505233725 67 213 7.8 12.2 0.00 0.15 0.15 49 1013.9
20260505233224 67 220 6.1 12.2 0.00 0.15 0.15 48 1013.9
20260505232723 67 225 5.2 10.4 0.00 0.15 0.15 49 1013.9
20260505232223 66 231 6.1 11.3 0.00 0.15 0.15 51 1013.9
20260505231721 65 227 7.8 11.3 0.00 0.15 0.15 52 1013.9
20260505231221 65 234 7.8 12.2 0.00 0.15 0.15 51 1013.9
20260505230219 66 216 5.2 9.6 0.00 0.15 0.15 50 1014.0
20260505225718 66 215 5.2 9.6 0.00 0.15 0.15 51 1014.0
20260505225217 66 263 4.3 9.6 0.00 0.15 0.15 51 1014.0
20260505224717 66 252 4.3 9.6 0.00 0.15 0.15 51 1014.1
20260505224217 66 261 5.2 12.2 0.00 0.15 0.15 52 1014.1
20260505223717 66 225 5.2 12.2 0.00 0.15 0.15 51 1014.2
20260505223217 66 240 5.2 9.6 0.00 0.15 0.15 51 1014.1
20260505222714 66 248 5.2 9.6 0.00 0.15 0.15 52 1014.2
20260505222212 66 262 5.2 11.3 0.00 0.15 0.15 51 1014.3
20260505221713 66 227 6.1 11.3 0.00 0.15 0.15 51 1014.2
20260505221210 67 227 5.2 10.4 0.00 0.15 0.15 51 1014.3
20260505220709 66 246 5.2 9.6 0.00 0.15 0.15 51 1014.2
20260505220209 67 222 5.2 9.6 0.00 0.15 0.15 49 1014.3
20260505215705 67 235 5.2 10.4 0.00 0.15 0.15 50 1014.3
20260505215205 67 219 4.3 10.4 0.00 0.15 0.15 50 1014.3
20260505214703 67 223 4.3 8.7 0.00 0.15 0.15 51 1014.4
20260505214204 67 236 4.3 9.6 0.00 0.15 0.15 51 1014.4
20260505213701 67 242 4.3 9.6 0.00 0.15 0.15 51 1014.4
20260505213433 66 267 5.2 10.4 0.00 0.15 0.15 51 1014.5
20260505212655 67 223 5.2 10.4 0.00 0.15 0.15 50 1014.5
20260505212154 67 229 5.2 10.4 0.00 0.15 0.15 51 1014.5
20260505211650 67 267 4.3 10.4 0.00 0.15 0.15 51 1014.6
20260505211150 67 231 3.5 8.7 0.00 0.15 0.15 51 1014.6
20260505210920 67 236 4.3 10.4 0.00 0.15 0.15 50 1014.7
20260505210147 67 245 5.2 10.4 0.00 0.15 0.15 51 1014.7
20260505205647 66 229 5.2 9.6 0.00 0.15 0.15 53 1014.7
20260505205147 66 226 5.2 13.0 0.00 0.15 0.15 53 1014.7
20260505204646 66 222 6.1 13.0 0.00 0.15 0.15 52 1014.7
20260505204146 67 217 6.1 12.2 0.00 0.15 0.15 50 1014.7
20260505203646 67 223 6.1 12.2 0.00 0.15 0.15 51 1014.6
20260505203413 67 222 7.0 13.0 0.00 0.15 0.15 51 1014.6
20260505202643 67 257 6.1 13.0 0.00 0.15 0.15 51 1014.6
20260505202138 67 211 6.1 12.2 0.00 0.15 0.15 51 1014.6
20260505201907 67 240 6.1 12.2 0.00 0.15 0.15 51 1014.6
20260505201136 67 221 6.1 12.2 0.00 0.15 0.15 51 1014.6
20260505200634 67 219 7.0 12.2 0.00 0.15 0.15 52 1014.7
20260505200135 66 222 6.1 12.2 0.00 0.15 0.15 53 1014.7
20260505195634 65 226 6.1 12.2 0.00 0.15 0.15 53 1014.7
20260505195135 65 228 7.0 11.3 0.00 0.15 0.15 53 1014.8
20260505194634 66 223 5.2 11.3 0.00 0.15 0.15 52 1014.9
20260505194135 67 250 5.2 10.4 0.00 0.15 0.15 51 1014.9
20260505193906 67 222 5.2 10.4 0.00 0.15 0.15 50 1014.9
20260505193136 67 211 5.2 9.6 0.00 0.15 0.15 49 1014.9
20260505192635 67 222 6.1 9.6 0.00 0.15 0.15 49 1014.9
20260505192135 67 223 5.2 10.4 0.00 0.15 0.15 51 1015.0
20260505191635 66 210 5.2 10.4 0.00 0.15 0.15 52 1015.0
20260505191135 66 232 3.5 10.4 0.00 0.15 0.15 51 1015.1
20260505190632 66 221 3.5 10.4 0.00 0.15 0.15 51 1015.0
20260505190132 66 219 5.2 11.3 0.00 0.15 0.15 51 1015.1
20260505185633 66 216 5.2 11.3 0.00 0.15 0.15 51 1015.1
20260505185133 66 238 3.5 9.6 0.00 0.15 0.15 52 1015.1
20260505184128 65 210 5.2 9.6 0.00 0.15 0.15 53 1015.1
20260505183627 65 223 4.3 10.4 0.00 0.15 0.15 52 1015.2
20260505183127 66 209 3.5 10.4 0.00 0.15 0.15 52 1015.1
20260505182858 66 235 3.5 7.8 0.00 0.15 0.15 54 1015.2
20260505182125 66 234 2.6 8.7 0.00 0.15 0.15 54 1015.2
20260505181619 65 215 3.5 8.7 0.00 0.15 0.15 58 1015.2
20260505181116 64 212 4.3 7.8 0.00 0.15 0.15 58 1015.2
20260505180617 64 218 5.2 9.6 0.00 0.15 0.15 57 1015.2
20260505180112 64 221 4.3 9.6 0.00 0.15 0.15 60 1015.2
20260505175609 63 209 4.3 8.7 0.00 0.15 0.15 60 1015.1
20260505175109 63 200 4.3 8.7 0.00 0.15 0.15 60 1015.1
20260505174604 64 198 4.3 7.8 0.00 0.15 0.15 60 1015.0
20260505174332 63 216 4.3 8.7 0.00 0.15 0.15 62 1015.0
20260505173601 62 223 5.2 10.4 0.00 0.15 0.15 63 1014.9
20260505173057 62 219 5.2 10.4 0.00 0.15 0.15 63 1014.9
20260505172556 62 209 5.2 9.6 0.00 0.15 0.15 64 1014.9
20260505172057 63 209 5.2 9.6 0.00 0.15 0.15 64 1014.8
20260505171555 63 250 5.2 8.7 0.00 0.15 0.15 64 1014.8
20260505171054 62 229 4.3 7.8 0.00 0.15 0.15 66 1014.8
20260505170551 62 194 4.3 8.7 0.00 0.15 0.15 67 1014.8
20260505170052 62 209 5.2 9.6 0.00 0.15 0.15 68 1014.7
20260505165550 61 223 4.3 10.4 0.00 0.15 0.15 71 1014.8
20260505165323 60 223 3.5 10.4 0.00 0.15 0.15 71 1014.8
20260505164551 60 216 3.5 7.8 0.00 0.15 0.15 73 1014.7
20260505164049 60 211 4.3 7.8 0.00 0.15 0.15 74 1014.7
20260505163549 60 214 4.3 7.8 0.00 0.15 0.15 75 1014.7
20260505163049 59 202 4.3 7.8 0.00 0.15 0.15 78 1014.6
20260505162547 58 209 4.3 7.8 0.00 0.15 0.15 80 1014.6
20260505162044 58 204 4.3 7.8 0.00 0.15 0.15 81 1014.6
20260505161545 58 223 4.3 9.6 0.00 0.15 0.15 82 1014.6
20260505161042 57 223 4.3 9.6 0.00 0.15 0.15 83 1014.6
20260505160540 57 217 4.3 7.8 0.00 0.15 0.15 84 1014.4
20260505153036 55 214 5.2 8.7 0.00 0.15 0.15 85 1014.3
20260505152537 55 224 4.3 7.8 0.00 0.15 0.15 84 1014.3
20260505152034 55 218 5.2 7.8 0.00 0.15 0.15 83 1014.2
20260505151535 55 213 5.2 8.7 0.00 0.15 0.15 83 1014.1
20260505151034 55 210 5.2 8.7 0.00 0.15 0.15 82 1014.0
20260505150807 55 209 4.3 7.8 0.00 0.15 0.15 81 1014.0
20260505140535 54 226 2.6 4.3 0.00 0.15 0.15 81 1013.8
20260505125018 54 226 2.6 4.3 0.00 0.15 0.15 83 1013.5
20260505124516 54 226 1.7 4.3 0.00 0.15 0.15 83 1013.6
20260505123517 54 226 2.6 4.3 0.01 0.15 0.15 84 1013.5
20260505123017 54 226 2.6 3.5 0.01 0.15 0.15 84 1013.6
20260505122517 54 226 2.6 5.2 0.01 0.15 0.15 84 1013.5
20260505122017 54 226 3.5 5.2 0.02 0.15 0.15 84 1013.5
20260505121746 54 225 3.5 6.1 0.02 0.15 0.15 84 1013.5
20260505121016 54 225 3.5 6.1 0.03 0.15 0.15 85 1013.6
20260505120748 54 225 2.6 5.2 0.04 0.15 0.15 85 1013.6
20260505115518 54 225 2.6 5.2 0.07 0.15 0.15 85 1013.6
20260505115249 54 225 2.6 5.2 0.10 0.15 0.15 85 1013.6
20260505114517 54 225 2.6 4.3 0.11 0.15 0.15 85 1013.6
20260505114016 55 225 2.6 5.2 0.12 0.14 0.14 85 1013.7
20260505113517 55 225 2.6 5.2 0.12 0.14 0.14 86 1013.7
20260505113243 55 225 2.6 4.3 0.12 0.14 0.14 86 1013.7
20260505112511 55 225 1.7 4.3 0.13 0.14 0.14 86 1013.7
20260505112238 54 225 0.9 2.6 0.12 0.13 0.13 86 1013.7
20260505111507 55 225 0.9 3.5 0.12 0.13 0.13 86 1013.7
20260505111007 55 225 1.7 3.5 0.11 0.12 0.12 86 1013.8
20260505110505 54 225 1.7 3.5 0.10 0.11 0.11 86 1013.7
20260505101951 55 225 1.7 4.3 0.01 0.01 0.01 86 1013.7
20260505101449 55 225 1.7 4.3 0.01 0.01 0.01 85 1013.7
20260505100948 55 225 1.7 5.2 0.01 0.01 0.01 85 1013.8
20260505100448 55 225 1.7 5.2 0.01 0.01 0.01 85 1013.8
20260505095944 55 225 0.9 3.5 0.01 0.01 0.01 85 1013.9
20260505095445 56 225 0.9 3.5 0.00 0.00 0.00 85 1013.8
20260505094941 56 225 1.7 4.3 0.00 0.00 0.00 84 1013.8
20260505094441 56 225 2.6 7.0 0.00 0.00 0.00 84 1013.9
20260505093941 56 225 2.6 7.0 0.00 0.00 0.00 84 1013.9
20260505093436 56 225 1.7 4.3 0.00 0.00 0.00 84 1013.9
20260505092938 56 225 0.9 4.3 0.00 0.00 0.00 84 1013.9
20260505092435 56 225 0.0 0.0 0.00 0.00 0.00 85 1014.0
20260505091936 55 225 0.0 0.0 0.00 0.00 0.00 84 1014.0
20260505091706 55 225 0.0 0.0 0.00 0.00 0.00 85 1014.1
20260505090936 55 225 0.0 0.0 0.00 0.00 0.00 85 1014.1
20260505090435 55 225 0.0 0.0 0.00 0.00 0.00 85 1014.2
20260505085936 55 225 0.0 0.0 0.00 0.00 0.00 85 1014.2
20260505085434 56 225 0.0 0.0 0.00 0.00 0.00 85 1014.3
20260505084935 56 225 0.0 0.0 0.00 0.00 0.00 85 1014.4
20260505084433 56 225 0.0 0.0 0.00 0.00 0.00 85 1014.3
20260505083930 56 225 0.0 1.7 0.00 0.00 0.00 85 1014.4
20260505083431 56 225 0.9 2.6 0.00 0.00 0.00 85 1014.4
20260505082926 56 225 0.9 2.6 0.00 0.00 0.00 85 1014.4
20260505082424 56 225 0.9 2.6 0.00 0.00 0.00 85 1014.5
20260505081422 56 225 0.9 2.6 0.00 0.00 0.00 84 1014.6
20260505080921 56 225 0.9 2.6 0.00 0.00 0.00 84 1014.6
20260505080419 56 225 0.9 2.6 0.00 0.00 0.00 84 1014.7
20260505075919 55 225 0.9 2.6 0.00 0.00 0.00 84 1014.8
20260505075420 56 225 1.7 5.2 0.00 0.00 0.00 84 1014.8
20260505074919 56 225 1.7 5.2 0.00 0.00 0.00 84 1014.8
20260505074417 56 225 1.7 5.2 0.00 0.00 0.00 83 1014.8
20260505073916 56 225 0.9 2.6 0.00 0.00 0.00 83 1014.8
20260505073648 56 225 0.9 3.5 0.00 0.00 0.00 83 1014.8
20260505072917 56 225 1.7 4.3 0.00 0.00 0.00 82 1014.9
20260505072649 56 225 1.7 4.3 0.00 0.00 0.00 81 1014.9
20260505071918 56 225 1.7 4.3 0.00 0.00 0.00 80 1014.9
20260505071417 56 225 2.6 5.2 0.00 0.00 0.00 80 1015.0
20260505070910 57 225 2.6 5.2 0.00 0.00 0.00 79 1014.9
20260505070408 57 225 2.6 5.2 0.00 0.00 0.00 79 1015.0
20260505065906 58 225 2.6 5.2 0.00 0.00 0.00 78 1014.9
20260505065406 58 225 3.5 6.1 0.00 0.00 0.00 78 1014.9
20260505064906 58 225 3.5 6.1 0.00 0.00 0.00 77 1015.0
20260505064405 58 226 3.5 6.1 0.00 0.00 0.00 77 1015.0
20260505063903 58 226 3.5 6.1 0.00 0.00 0.00 77 1015.0
20260505063405 58 226 3.5 7.8 0.00 0.00 0.00 77 1015.0
20260505062904 58 226 3.5 7.8 0.00 0.00 0.00 77 1015.0
20260505062404 58 226 4.3 7.8 0.00 0.00 0.00 76 1015.0
20260505061900 58 225 4.3 7.8 0.00 0.00 0.00 76 1014.9
20260505061359 58 229 4.3 7.8 0.00 0.00 0.00 76 1015.0
20260505060900 58 227 3.5 7.0 0.00 0.00 0.00 76 1015.0
20260505060356 58 227 3.5 7.8 0.00 0.00 0.00 76 1015.1
20260505055857 58 226 3.5 7.8 0.00 0.00 0.00 77 1015.0
20260505055355 58 227 4.3 7.8 0.00 0.00 0.00 76 1015.1
20260505054855 58 228 5.2 8.7 0.00 0.00 0.00 76 1015.1
20260505054355 58 225 4.3 8.7 0.00 0.00 0.00 76 1015.1
20260505053855 58 220 4.3 7.8 0.00 0.00 0.00 76 1015.2
20260505053354 58 220 4.3 7.8 0.00 0.00 0.00 76 1015.2
20260505052855 58 219 4.3 7.8 0.00 0.00 0.00 76 1015.3
20260505052353 58 219 4.3 8.7 0.00 0.00 0.00 77 1015.3
20260505051853 58 220 5.2 8.7 0.00 0.00 0.00 76 1015.3
20260505051352 58 223 4.3 8.7 0.00 0.00 0.00 76 1015.3
20260505050855 58 217 4.3 7.8 0.00 0.00 0.00 77 1015.4
20260505050352 58 216 5.2 9.6 0.00 0.00 0.00 76 1015.4
20260505050123 58 223 5.2 9.6 0.00 0.00 0.00 76 1015.3